TRA9M EHEH-EKCH

Flight info

Callsign TRA9M
Flight time N/A
Altitude 23000
Route VELNI Y869 SUMOP L179 ERKUM/N0452F350 L179 MEVEL Y850 BASUM DCT MAKEL N851 GESKA Z711 MONAK
Aircraft B738/M-SDE2E3FGHIRWXY/LB1

Departure

Time 2026-04-29 19:03
Airport Eindhoven Airport (EHEH)

Arrival

Time N/A
Airport Copenhagen Kastrup Airport (EKCH)
Time Latitude Longitude Altitude Speed Heading
2026-04-29 18:14 51.45614 5.38785 65 ft 0 kts 125°
2026-04-29 18:49 51.45615 5.38781 74 ft 3 kts 125°
2026-04-29 18:50 51.45631 5.38747 63 ft 4 kts 127°
2026-04-29 18:50 51.45646 5.38712 67 ft 4 kts 115°
2026-04-29 18:50 51.45651 5.38680 67 ft 4 kts 44°
2026-04-29 18:50 51.45632 5.38656 68 ft 4 kts 36°
2026-04-29 18:51 51.45626 5.38650 70 ft 1 kts 34°
2026-04-29 18:53 51.45627 5.38650 70 ft 1 kts 34°
2026-04-29 18:53 51.45656 5.38681 67 ft 8 kts 34°
2026-04-29 18:53 51.45702 5.38732 71 ft 8 kts 34°
2026-04-29 18:53 51.45746 5.38783 71 ft 8 kts 32°
2026-04-29 18:54 51.45803 5.38753 68 ft 13 kts 305°
2026-04-29 18:54 51.45862 5.38619 65 ft 15 kts 306°
2026-04-29 18:54 51.45917 5.38485 69 ft 14 kts 305°
2026-04-29 18:54 51.45975 5.38362 75 ft 13 kts 304°
2026-04-29 18:55 51.45979 5.38257 70 ft 10 kts 226°
2026-04-29 18:55 51.45915 5.38183 74 ft 14 kts 213°
2026-04-29 18:55 51.45821 5.38081 74 ft 18 kts 214°
2026-04-29 18:55 51.45720 5.37961 68 ft 18 kts 214°
2026-04-29 18:56 51.45617 5.37854 73 ft 17 kts 214°
2026-04-29 18:56 51.45521 5.37744 70 ft 17 kts 217°
2026-04-29 18:56 51.45426 5.37642 71 ft 16 kts 212°
2026-04-29 18:56 51.45328 5.37532 71 ft 20 kts 217°
2026-04-29 18:57 51.45212 5.37399 74 ft 20 kts 216°
2026-04-29 18:57 51.45099 5.37272 71 ft 20 kts 216°
2026-04-29 18:57 51.44989 5.37146 70 ft 19 kts 215°
2026-04-29 18:57 51.44883 5.37027 74 ft 18 kts 214°
2026-04-29 18:58 51.44780 5.36910 68 ft 18 kts 215°
2026-04-29 18:58 51.44679 5.36804 65 ft 17 kts 217°
2026-04-29 18:58 51.44585 5.36692 66 ft 16 kts 214°
2026-04-29 18:58 51.44493 5.36588 70 ft 16 kts 214°
2026-04-29 18:59 51.44403 5.36495 73 ft 15 kts 217°
2026-04-29 18:59 51.44317 5.36399 70 ft 15 kts 216°
2026-04-29 18:59 51.44237 5.36304 74 ft 14 kts 217°
2026-04-29 18:59 51.44159 5.36216 72 ft 13 kts 214°
2026-04-29 19:00 51.44086 5.36135 70 ft 13 kts 214°
2026-04-29 19:00 51.44017 5.36081 70 ft 11 kts 190°
2026-04-29 19:00 51.43977 5.36109 71 ft 3 kts 131°
2026-04-29 19:00 51.43972 5.36119 67 ft 0 kts 126°
2026-04-29 19:01 51.43972 5.36120 67 ft 1 kts 126°
2026-04-29 19:01 51.43950 5.36169 67 ft 9 kts 123°
2026-04-29 19:01 51.43952 5.36260 73 ft 9 kts 46°
2026-04-29 19:02 51.44002 5.36318 68 ft 9 kts 35°
2026-04-29 19:02 51.44034 5.36355 73 ft 8 kts 35°
2026-04-29 19:02 51.44221 5.36561 73 ft 62 kts 36°
2026-04-29 19:02 51.44760 5.37173 74 ft 125 kts 36°
2026-04-29 19:03 51.45600 5.38060 304 ft 156 kts 35°
2026-04-29 19:03 51.46540 5.39106 788 ft 173 kts 40°
2026-04-29 19:03 51.47554 5.40283 1346 ft 187 kts 42°
2026-04-29 19:03 51.48617 5.41532 1924 ft 192 kts 41°
2026-04-29 19:04 51.49718 5.42743 2557 ft 198 kts 41°
2026-04-29 19:04 51.50841 5.44128 3151 ft 206 kts 53°
2026-04-29 19:04 51.51437 5.46167 3827 ft 205 kts 86°
2026-04-29 19:04 51.51359 5.48462 4488 ft 211 kts 107°
2026-04-29 19:05 51.50843 5.50694 5212 ft 216 kts 107°
2026-04-29 19:05 51.50406 5.53000 6004 ft 216 kts 107°
2026-04-29 19:05 51.49943 5.55294 6812 ft 217 kts 107°
2026-04-29 19:05 51.49450 5.57609 7483 ft 222 kts 105°
2026-04-29 19:06 51.49074 5.60141 7760 ft 246 kts 100°
2026-04-29 19:06 51.48712 5.62907 8307 ft 258 kts 100°
2026-04-29 19:06 51.48568 5.68628 9801 ft 263 kts 82°
2026-04-29 19:07 51.48821 5.71559 10526 ft 267 kts 81°
2026-04-29 19:07 51.48909 5.72565 10662 ft 273 kts 81°
2026-04-29 19:07 51.49928 5.77727 10957 ft 311 kts 68°
2026-04-29 19:07 51.50805 5.81032 11130 ft 332 kts 66°
2026-04-29 19:08 51.51739 5.84496 11561 ft 343 kts 66°
2026-04-29 19:08 51.52685 5.88037 12218 ft 346 kts 66°
2026-04-29 19:08 51.53625 5.91614 12936 ft 349 kts 67°
2026-04-29 19:08 51.54539 5.95140 13611 ft 353 kts 67°